Flag for Dominican Republic Weather past 2 weeks in Santiago de los Caballeros, Dominican Republic

Now
88 °F

Passing clouds.


Feels Like: 96 °F
Forecast: N/A
Wind: 10 mph from Southeast

Location: Santiago

Current Time: Oct 1, 2014 at 7:07:07 PM

Latest Report: Oct 1, 2014 at 6:00 PM


Visibility: N/A

Pressure: 29.92 "Hg

Humidity: 62%

Dew point: 73 °F

Location of Santiago de los CaballerosLocation

Historic Weather in Santiago de los Caballeros — Graph

°F

Santiago de los Caballeros temperature yesterday

Maximum temperature yesterday: 90 °F (at 3:00 PM)
Minimum temperature yesterday: 72 °F (at 3:00 AM)
Average temperature yesterday: 79 °F

Past Weeks' High & Low Weather Summary

 TemperatureHumidityPressure
High91 °F (Sep 18, 3:00 PM)100% (Sep 17, 1:00 AM)30.04 "Hg (Sep 17, 1:00 AM)
Low68 °F (Oct 1, 5:00 AM)52% (Sep 18, 3:00 PM)29.83 "Hg (Sep 23, 3:00 PM)
Average79 °F85%29.94 "Hg
* Reported Sep 16 6:00 PM — Oct 1 6:00 PM, Santiago de los Caballeros, Weather by CustomWeather, © 2014

Note: Actual official high and low records may vary slightly from our data, if they occured in-between our weather recording intervals... More about our weather records

Advertising

Santiago de los Caballeros weather history for previous 24 hours

 ConditionsComfort  
Time TempWeatherWind HumidityBarometerVisibility
6:00 PM
Oct 1
88 °FPassing clouds.10 mph62%29.92 "HgN/A
5:00 PM90 °FPassing clouds.16 mph59%29.92 "HgN/A
4:00 PM91 °FPassing clouds.13 mph59%29.92 "HgN/A
3:00 PM91 °FPassing clouds.9 mph59%29.92 "HgN/A
2:00 PM90 °FPassing clouds.9 mph63%29.92 "HgN/A
1:00 PM90 °FPassing clouds.9 mph63%29.95 "HgN/A
12:00 PM88 °FPassing clouds.13 mph62%29.98 "HgN/A
11:00 AM86 °FPassing clouds.12 mph66%29.98 "HgN/A
10:00 AM81 °FPassing clouds.9 mph84%30.01 "HgN/A
9:00 AM77 °FPassing clouds.7 mph89%30.01 "HgN/A
8:00 AM72 °FPassing clouds.No wind94%29.98 "HgN/A
7:00 AM68 °FFog.No wind100%29.98 "Hg1 mi
6:00 AM68 °FFog.No wind100%29.98 "Hg1 mi
5:00 AM68 °FFog.No wind100%29.95 "Hg1 mi
4:00 AM70 °FPassing clouds.3 mph100%29.95 "HgN/A
3:00 AM72 °FPassing clouds.No wind94%29.95 "HgN/A
2:00 AM72 °FPassing clouds.No wind94%29.95 "HgN/A
1:00 AM73 °FPassing clouds.5 mph94%29.95 "HgN/A
12:00 AM75 °FPassing clouds.5 mph89%29.98 "HgN/A
11:00 PM
Sep 30
77 °FPassing clouds.No wind83%29.98 "HgN/A
10:00 PM77 °FPassing clouds.6 mph83%29.95 "HgN/A
9:00 PM77 °FPassing clouds.7 mph83%29.95 "HgN/A
8:00 PM79 °FPassing clouds.9 mph79%29.92 "HgN/A
7:00 PM82 °FPassing clouds.12 mph74%29.92 "HgN/A
Weather by CustomWeather, © 2014

See weather overviewHow to use our weather pages